Location: Palomar Mountain Lodge
(33.3110°N, 116.8495°W)
Time: 04:40:41
(UTC-07:00)

Daily predictions for brighter satellites

Satellite Brightness Start Highest point End
(mag) Time Altitude Azimuth Time Altitude Azimuth Time Altitude Azimuth
Cosmos 2219 Rocket 3.7 03:56:01 31° E 03:56:01 31° E 04:00:06 10° NE
COSMOS 2455 4.2 03:58:34 32° NNE 03:58:34 32° NNE 04:01:40 10° NNE
COSMOS 2428 3.8 04:06:34 41° E 04:06:34 41° E 04:11:18 10° NE
ATLAS 2AS CENTAUR R/B 4.0 04:06:01 24° SSE 04:10:09 42° ESE 04:17:34 10° NE
Cosmos 2360 Rocket 4.2 04:28:55 17° N 04:28:55 17° N 04:30:20 10° N
Cosmos 1709 Rocket 4.0 04:26:57 76° SE 04:27:20 79° E 04:33:37 10° N
IDEFIX/ARIANE 42P 3.2 04:33:09 10° N 04:36:50 47° N 04:36:50 47° N
Aureole 1 Rocket 4.1 04:35:16 35° S 04:38:34 80° ESE 04:44:27 10° NNE
CZ-2C R/B 3.5 04:43:00 10° NNE 04:48:00 46° E 04:52:53 10° S
H-2A R/B 3.3 04:47:57 10° NNE 04:50:48 44° NNE 04:50:48 44° NNE
Cosmos 1844 Rocket 2.5 04:50:15 33° NNW 04:52:51 89° ENE 04:58:23 10° SSE
MSX 3.7 04:48:51 10° NNE 04:54:36 88° ESE 04:59:26 15° SSW
Cosmos 1025 Rocket 3.3 04:55:17 37° SSE 04:56:50 65° E 05:01:03 10° NNE
Meteor 1-22 Rocket 4.1 04:51:37 10° N 04:56:58 76° E 05:02:13 10° SSE
Meteor 1-21 4.4 04:51:58 10° S 04:57:28 68° E 05:03:02 10° NNE
Cosmos 2333 Rocket 2.1 04:58:49 61° W 04:59:10 63° WNW 05:04:48 10° NNE
PAYLOAD A 3.9 04:55:03 10° NNE 04:59:53 78° ESE 05:04:53 10° S
Cosmos 1992 Rocket 4.4 04:55:20 10° N 05:00:29 61° ENE 05:05:36 10° SSE
Cosmos 1536 Rocket 3.3 05:05:45 74° SW 05:06:03 80° W 05:10:22 10° N
Cosmos 2278 Rocket 4.3 05:03:14 10° N 05:07:55 26° ENE 05:12:35 10° ESE
Milstar 3 Cent rocket 4.0 05:05:11 14° SSW 05:08:00 19° SSE 05:11:24 10° ESE
Cosmos 1844 3.6 05:05:54 10° NNW 05:11:42 81° WSW 05:17:26 10° SSE
Cosmos 2181 Rocket 3.9 05:07:10 10° N 05:13:32 83° W 05:19:46 10° S
Milstar 3 4.3 05:11:30 12° SSW 05:16:36 27° SSE 05:22:21 10° E
Meteor 1-31 Rocket 2.7 05:14:55 10° NNE 05:18:43 78° E 05:22:29 10° S
NOSS 3-4 (A) 3.4 05:14:51 11° SSW 05:20:34 80° ESE 05:26:45 10° NNE
NOSS 0 Rocket 3.8 05:14:29 10° SSW 05:20:37 88° WNW 05:26:49 10° NNE
NOSS 3-4 (C) 3.4 05:14:47 10° SSW 05:20:40 79° ESE 05:26:51 10° NNE
USA 234 3.2 05:16:36 10° SE 05:23:07 74° SW 05:28:43 15° NW
GPS 2-05 Rocket1 2.3 05:27:09 73° E 05:27:09 73° E 05:29:41 10° ESE
Cosmos 1470 3.8 05:23:52 10° N 05:27:39 47° E 05:31:23 10° SSE
Cosmos 1707 3.3 05:25:24 10° S 05:29:12 59° E 05:33:03 10° NNE
Celestis-02/Orion 38 4.5 05:25:34 10° SSE 05:30:36 65° WSW 05:35:47 10° NNW
BREEZE-M DEB (TANK) 2.1 05:31:50 23° NW 05:34:10 68° NNE 05:36:30 10° ESE
Cosmos 1733 3.2 05:30:44 10° NNW 05:34:29 52° W 05:38:11 10° S
ERBS 2.9 05:35:41 36° NW 05:35:46 36° NW 05:38:54 10° NNE
Cosmos 1484 Rocket 3.7 05:32:57 10° NNE 05:36:38 49° E 05:40:20 10° S
Cosmos 1190 Rocket 4.0 05:32:30 10° SSW 05:37:48 87° ESE 05:43:07 10° NNE
Meteor PRIRODA 3.6 05:34:18 10° NNE 05:38:02 87° ESE 05:41:45 10° SSW
Cosmos 389 Rocket 2.4 05:35:34 10° S 05:38:57 78° E 05:42:22 10° N
Cosmos 2219 Rocket 3.0 05:37:48 25° W 05:39:04 28° WNW 05:43:49 10° N
COSMOS 2455 4.4 05:41:46 16° NW 05:42:11 16° NW 05:45:47 10° NNW
Cosmos 407 Rocket 3.3 05:37:21 10° SSW 05:42:30 73° WNW 05:47:37 10° NNE
Cosmos 2237 Rocket 2.1 05:37:39 10° SSW 05:43:17 72° WNW 05:48:58 10° NNE
USA 32 4.2 05:40:45 10° SSW 05:45:46 47° W 05:50:48 10° N
CZ-4B R/B 3.1 05:44:07 10° N 05:47:56 42° WNW 05:51:33 10° SW
COSMOS 2428 3.8 05:48:39 20° W 05:50:23 23° WNW 05:54:48 10° N
SeaSat 1 4.1 05:46:14 10° NE 05:50:45 36° ESE 05:55:15 10° S
ATLAS 3B R/B 4.1 05:46:29 10° NNW 05:52:39 37° NE 05:58:56 10° ESE
Delta 142 4.2 05:54:30 17° WSW 05:57:22 40° S 06:01:11 10° ESE
Cosmos 1980 3.9 05:54:12 10° SW 05:59:37 47° WNW 06:05:03 10° N
ATLAS 2AS CENTAUR R/B 3.5 05:53:44 10° WSW 06:01:08 42° NW 06:08:42 10° NNE
Cosmos 2154 Rocket 3.9 05:55:36 10° S 06:01:47 79° W 06:07:59 10° N
COSMO-SKYMED 1 3.0 05:58:09 10° SSE 06:02:26 68° ENE 06:06:45 10° N
IUS-9 SRM-1 3.6 06:00:32 12° SW 06:02:31 28° SSE 06:08:06 10° ESE
Helios 1A Rocket 3.0 06:03:06 10° NNE 06:07:15 82° ESE 06:11:23 10° S
CENTAUR R/B 3.9 06:00:08 10° NNW 06:08:16 58° NE 06:16:49 10° SE
CZ-4B R/B 3.6 06:04:32 10° NNE 06:09:48 67° ESE 06:15:02 10° S
USA 238 DEB 3.9 06:04:19 10° NW 06:11:29 61° WSW 06:18:47 10° SSE
USA 238 3.9 06:04:26 10° NW 06:11:35 61° WSW 06:18:53 10° SSE
Cosmos 2184 Rocket 4.5 06:06:31 10° SW 06:12:08 37° WNW 06:17:52 10° NNW
Cosmos 1674 4.3 06:08:48 10° SSE 06:12:14 38° E 06:15:41 10° NNE
USA 116 4.5 06:11:02 10° SSE 06:15:15 58° ENE 06:18:59 10° N
Cosmos 1437 Rocket 3.3 06:12:13 10° S 06:15:57 61° E 06:19:41 10° NNE
Cosmos 1954 Rocket 4.0 06:12:19 10° SSW 06:17:34 73° WNW 06:22:47 10° NNE
COBE Rocket 3.9 06:13:04 10° S 06:17:57 75° W 06:23:01 10° NNW
Cosmos 1953 2.3 06:14:09 10° NNW 06:18:07 62° W 06:22:03 10° S
Centaur D AC-28 3.1 06:14:28 10° WSW 06:18:17 55° SSE 06:30:01 10° E
PSLV R/B 4.5 06:15:38 10° NNW 06:18:52 29° WNW 06:22:02 10° SW
Okean O Rocket 1.6 06:16:34 10° N 06:20:59 83° W 06:25:19 10° SSW
Cosmos 2341 Rocket 4.1 06:15:19 10° S 06:21:36 86° E 06:27:50 10° N
Cosmos 1356 4.3 06:18:55 10° N 06:22:18 53° E 06:25:39 10° SSE
Centaur D AC-29 3.5 06:04:06 11° W 06:22:47 39° SW 06:27:31 10° SE
Cosmos 1726 3.4 06:19:36 10° N 06:23:07 45° E 06:26:38 10° SSE
Cosmos 1758 4.2 06:20:07 10° NNW 06:23:30 27° W 06:26:52 10° SSW
CZ-2C R/B 3.9 06:22:22 10° NNW 06:25:46 18° WNW 06:29:10 10° WSW
SJ-12 4.2 06:23:32 10° N 06:27:26 45° WNW 06:31:20 10° SSW
Cosmos 1726 Rocket 3.5 06:23:43 10° N 06:28:01 77° W 06:32:18 10° S
Nadezhda 3 Rocket 4.1 06:24:51 10° NNW 06:31:07 64° W 06:37:21 10° S
RESURS DK-1 2.3 06:27:06 10° SSW 06:31:12 72° WNW 06:35:19 10° NNE
